Sheridan, WY

12:00 AM MDT on September 22, 2019 (GMT -0600)
Sheridan County

Weather History for KSHR - August, 2019

Change the Weather History Date:

Friday, August 16, 2019

  Actual Average Record
Temperature  
Mean Temperature 67 °F 69 °F  
Max Temperature 86 °F 87 °F 102 °F (2003)
Min Temperature 48 °F 52 °F 37 °F (1925)
Degree Days  
Heating Degree Days 0 1  
Month to date heating degree days 1 10  
Since 1 June heating degree days 157 183  
Since 1 July heating degree days 19 34  
Cooling Degree Days 2 5  
Month to date cooling degree days 108 101  
Year to date cooling degree days 302 333  
Since 1 June cooling degree days 302 329  
Growing Degree Days 17 (Base 50)    
Moisture  
Dew Point 45 °F    
Average Humidity 52    
Maximum Humidity 80    
Minimum Humidity 23    
Precipitation  
Precipitation 0.00 in 0.02 in 0.64 in (1960)
Month to date precipitation 0.16 0.37  
Year to date precipitation 12.62 9.70  
Sea Level Pressure  
Sea Level Pressure 29.85 in    
Wind  
Wind Speed 5 mph (WSW)    
Max Wind Speed 14 mph    
Max Gust Speed 18 mph    
Visibility 10 miles    
Events      
T = Trace of Precipitation, MM = Missing Value Source: NWS Daily Summary

Daily Weather History Graph

Daily Weather History Graph

Search for Another Location

Airport or City:

Astronomy

Aug. 16, 2019 Rise Set
Actual Time 6:11 AM MDT 8:12 PM MDT
Civil Twilight 5:39 AM MDT 8:44 PM MDT
Nautical Twilight 5:00 AM MDT 9:22 PM MDT
Astronomical Twilight 4:17 AM MDT 10:05 PM MDT
Moon 9:11 PM MDT (8/16) 7:05 AM MDT (8/16)
Length of Visible Light 15h 04m
Length of Day
14h 01m
Full, 99% of the Moon is Illuminated
Aug 16
Full
Aug 23
Last Quarter
Aug 30
New
Sep 5
First Quarter
Sep 13
Full

Hourly Weather History & Observations

Time (MDT) Temp. Dew Point Humidity Pressure Visibility Wind Dir Wind Speed Gust Speed Precip Events Conditions
12:32 AM 63.0 °F 48.9 °F 60% 30.05 in 10.0 mi NW 10.4 mph - N/A   Scattered Clouds
12:53 AM 63.0 °F 48.9 °F 60% 29.93 in 10.0 mi NNW 10.4 mph - N/A   Mostly Cloudy
1:53 AM 57.9 °F 50.0 °F 75% 29.90 in 10.0 mi South 15.0 mph - N/A   Clear
2:53 AM 57.0 °F 48.9 °F 74% 29.87 in 10.0 mi SSW 6.9 mph - N/A   Clear
3:53 AM 55.9 °F 46.0 °F 69% 29.88 in 10.0 mi Calm Calm - N/A   Clear
4:53 AM 51.1 °F 45.0 °F 80% 29.89 in 10.0 mi South 4.6 mph - N/A   Clear
5:53 AM 48.9 °F 43.0 °F 80% 29.91 in 10.0 mi SSW 6.9 mph - N/A   Clear
6:53 AM 54.0 °F 45.0 °F 72% 29.91 in 10.0 mi SW 5.8 mph - N/A   Clear
7:53 AM 59.0 °F 46.9 °F 64% 29.91 in 10.0 mi Calm Calm - N/A   Clear
8:53 AM 66.9 °F 48.0 °F 51% 29.90 in 10.0 mi Calm Calm - N/A   Clear
9:53 AM 72.0 °F 43.0 °F 35% 29.88 in 10.0 mi ESE 3.5 mph - N/A   Clear
10:53 AM 75.0 °F 43.0 °F 32% 29.86 in 10.0 mi WSW 5.8 mph - N/A   Clear
11:53 AM 78.1 °F 42.1 °F 28% 29.85 in 10.0 mi Calm Calm - N/A   Clear
12:53 PM 79.0 °F 44.1 °F 29% 29.83 in 10.0 mi SSE 3.5 mph - N/A   Clear
1:53 PM 81.0 °F 44.1 °F 27% 29.81 in 10.0 mi SSE 5.8 mph - N/A   Scattered Clouds
2:53 PM 82.9 °F 42.1 °F 24% 29.80 in 10.0 mi NNE 6.9 mph - N/A   Scattered Clouds
3:53 PM 82.0 °F 42.1 °F 24% 29.79 in 10.0 mi NW 8.1 mph - N/A   Clear
4:53 PM 84.0 °F 42.1 °F 23% 29.78 in 10.0 mi NNE 6.9 mph - N/A   Partly Cloudy
5:53 PM 82.9 °F 41.0 °F 23% 29.79 in 10.0 mi North 6.9 mph - N/A   Clear
6:53 PM 80.1 °F 41.0 °F 25% 29.77 in 10.0 mi North 10.4 mph - N/A   Clear
7:53 PM 70.0 °F 45.0 °F 41% 29.80 in 10.0 mi NW 5.8 mph - N/A   Clear
8:53 PM 62.1 °F 46.0 °F 56% 29.81 in 10.0 mi WSW 4.6 mph - N/A   Clear
9:53 PM 59.0 °F 46.9 °F 64% 29.82 in 10.0 mi South 4.6 mph - N/A   Clear
10:53 PM 57.0 °F 46.0 °F 67% 29.82 in 10.0 mi Calm Calm - N/A   Clear
11:53 PM 54.0 °F 46.0 °F 75% 29.82 in 10.0 mi Calm Calm - N/A   Clear